Weather History for Moffett NAS, CA

Change the Weather History Date:

Saturday, April 21, 2007

  Actual Average Record
Temperature  
Mean Temperature 53 °F 60 °F  
Max Temperature 61 °F 70 °F 90 °F (2009)
Min Temperature 45 °F 50 °F 39 °F (2001)
Degree Days  
Heating Degree Days 12    
Month to date heating degree days  
Since 1 July heating degree days  
Cooling Degree Days 0    
Month to date cooling degree days  
Year to date cooling degree days  
Growing Degree Days 3 (Base 50)    
Moisture  
Dew Point 41 °F    
Average Humidity 66    
Maximum Humidity 83    
Minimum Humidity 36    
Precipitation  
Precipitation 0.14 in 0.03 in 0.58 in (1967)
Month to date precipitation 0.73  
Year to date precipitation 8.81  
Since 1 July precipitation 13.86  
Sea Level Pressure  
Sea Level Pressure 30.04 in    
Wind  
Wind Speed 3 mph (SSE)    
Max Wind Speed 15 mph    
Max Gust Speed 23 mph    
Visibility 10 miles    
Events Rain    
T = Trace of Precipitation, MM = Missing Value Source: NWS Daily Summary

Daily Weather History Graph

Daily Weather History Graph

Search for Another Location

Airport:

Trip Planner

Search our weather history database for the weather conditions in past years. The results will help you decide how hot, cold, wet, or windy it might be!

Date:

Astronomy

Apr. 21, 2007 Rise Set
Actual Time 6:25 AM PDT 7:48 PM PDT
Civil Twilight 5:58 AM PDT 8:16 PM PDT
Nautical Twilight 5:25 AM PDT 8:48 PM PDT
Astronomical Twilight 4:51 AM PDT 9:23 PM PDT
Moon 9:29 AM PDT (4/21) 12:21 AM PDT (4/21)
Length of Visible Light 14h 17m
Length of Day
13h 23m
Waxing Crescent, 25% of the Moon is Illuminated
Apr 21
Waxing Crescent
Apr 23
First Quarter
May 2
Full
May 9
Last Quarter
May 16
New

Hourly Weather History & Observations

Time (PDT) Temp. Windchill Dew Point Humidity Pressure Visibility Wind Dir Wind Speed Gust Speed Precip Events Conditions
12:56 AM 48.9 °F - 39.9 °F 71% 30.01 in 10.0 mi Calm Calm - N/A   Clear
1:56 AM 48.0 °F - 39.0 °F 71% 30.01 in 10.0 mi Calm Calm - N/A   Clear
2:56 AM 48.0 °F - 39.0 °F 71% 30.01 in 10.0 mi SSW 4.6 mph - N/A   Clear
3:56 AM 46.0 °F 44.8 °F 39.0 °F 76% 30.02 in 10.0 mi West 3.5 mph - N/A   Clear
4:56 AM 45.0 °F - 37.9 °F 76% 30.04 in 10.0 mi Calm Calm - N/A   Clear
5:56 AM 45.0 °F - 39.0 °F 80% 30.04 in 10.0 mi Calm Calm - N/A   Clear
6:56 AM 46.0 °F 43.9 °F 39.0 °F 76% 30.06 in 10.0 mi South 4.6 mph - N/A   Clear
7:56 AM 48.9 °F - 39.9 °F 71% 30.07 in 10.0 mi Calm Calm - N/A   Clear
8:56 AM 52.0 °F - 41.0 °F 66% 30.07 in 10.0 mi Calm Calm - N/A   Clear
9:56 AM 54.0 °F - 42.1 °F 64% 30.08 in 10.0 mi Calm Calm - N/A   Partly Cloudy
10:56 AM 59.0 °F - 42.1 °F 53% 30.07 in 10.0 mi Calm Calm - N/A   Scattered Clouds
11:56 AM 59.0 °F - 41.0 °F 51% 30.09 in 10.0 mi Calm Calm - N/A   Overcast
12:56 PM 60.1 °F - 42.1 °F 51% 30.09 in 10.0 mi Calm Calm - N/A   Scattered Clouds
1:56 PM 60.1 °F - 39.9 °F 47% 30.07 in 10.0 mi Variable 4.6 mph - N/A   Scattered Clouds
2:56 PM 60.1 °F - 39.9 °F 47% 30.06 in 10.0 mi Calm Calm - N/A   Mostly Cloudy
3:56 PM 60.1 °F - 41.0 °F 49% 30.05 in 10.0 mi Calm Calm - N/A   Clear
4:56 PM 61.0 °F - 34.0 °F 36% 30.03 in 10.0 mi SSE 11.5 mph 16.1 mph N/A   Scattered Clouds
5:56 PM 57.9 °F - 41.0 °F 53% 30.05 in 10.0 mi Calm Calm - 0.00 in Rain Light Rain
6:56 PM 52.0 °F - 46.0 °F 80% 30.06 in 3.0 mi Calm Calm - 0.08 in Rain Rain
7:56 PM 52.0 °F - 46.9 °F 83% 30.04 in 10.0 mi SE 10.4 mph - 0.06 in Rain Light Rain
8:56 PM 52.0 °F - 46.0 °F 80% 30.03 in 10.0 mi SE 12.7 mph 18.4 mph 0.00 in   Mostly Cloudy
9:56 PM 53.1 °F - 44.1 °F 71% 30.02 in 10.0 mi SSE 9.2 mph 23.0 mph N/A   Overcast
10:56 PM 52.0 °F - 44.1 °F 74% 30.02 in 10.0 mi SE 13.8 mph - N/A   Overcast
11:30 PM 51.8 °F - 44.6 °F 76% 29.99 in 10.0 mi ESE 15.0 mph - N/A   Overcast
11:56 PM 52.0 °F - 44.1 °F 74% 29.99 in 10.0 mi SSE 13.8 mph - N/A   Overcast